TAP1901 LPPT-LPFR

Flight info

Callsign TAP1901
Flight time 0h 31m
Altitude 23000
Route DUZOP DCT ODEMI
Aircraft A20N/M-SDE2E3FGHIRWXY/LB1

Departure

Time 2026-05-05 18:16
Airport Lisbon Humberto Delgado Airport (LPPT)

Arrival

Time 2026-05-05 18:47
Airport Faro - Gago Coutinho International Airport (LPFR)
Time Latitude Longitude Altitude Speed Heading
2026-05-05 18:01 38.76937 -9.13065 337 ft 0 kts 78°
2026-05-05 18:08 38.76935 -9.13079 337 ft 3 kts 81°
2026-05-05 18:08 38.76933 -9.13104 335 ft 3 kts 91°
2026-05-05 18:08 38.76934 -9.13130 334 ft 3 kts 107°
2026-05-05 18:08 38.76943 -9.13152 334 ft 3 kts 143°
2026-05-05 18:09 38.76952 -9.13159 336 ft 1 kts 168°
2026-05-05 18:11 38.76938 -9.13155 335 ft 4 kts 168°
2026-05-05 18:11 38.76900 -9.13145 337 ft 6 kts 168°
2026-05-05 18:11 38.76844 -9.13130 337 ft 11 kts 168°
2026-05-05 18:12 38.76780 -9.13170 339 ft 12 kts 247°
2026-05-05 18:12 38.76761 -9.13283 339 ft 13 kts 258°
2026-05-05 18:12 38.76727 -9.13397 347 ft 14 kts 229°
2026-05-05 18:12 38.76658 -9.13473 347 ft 13 kts 242°
2026-05-05 18:13 38.76636 -9.13595 345 ft 15 kts 258°
2026-05-05 18:13 38.76613 -9.13738 353 ft 17 kts 258°
2026-05-05 18:13 38.76587 -9.13899 345 ft 18 kts 257°
2026-05-05 18:13 38.76546 -9.14030 353 ft 17 kts 231°
2026-05-05 18:14 38.76496 -9.14165 346 ft 19 kts 276°
2026-05-05 18:14 38.76534 -9.14294 335 ft 8 kts 293°
2026-05-05 18:14 38.76558 -9.14365 331 ft 11 kts 295°
2026-05-05 18:14 38.76626 -9.14399 334 ft 12 kts 17°
2026-05-05 18:15 38.76728 -9.14344 336 ft 29 kts 23°
2026-05-05 18:15 38.76945 -9.14228 348 ft 73 kts 22°
2026-05-05 18:15 38.77583 -9.13887 364 ft 123 kts 23°
2026-05-05 18:15 38.78794 -9.13196 671 ft 150 kts 19°
2026-05-05 18:16 38.79784 -9.12653 1104 ft 160 kts 19°
2026-05-05 18:16 38.80798 -9.12067 1775 ft 156 kts 20°
2026-05-05 18:16 38.81449 -9.11655 2211 ft 156 kts 22°
2026-05-05 18:16 38.82449 -9.10972 2565 ft 171 kts 24°
2026-05-05 18:17 38.83549 -9.10169 2817 ft 193 kts 25°
2026-05-05 18:17 38.84791 -9.09236 3107 ft 219 kts 26°
2026-05-05 18:17 38.86159 -9.08192 3657 ft 240 kts 27°
2026-05-05 18:17 38.87489 -9.06789 4407 ft 257 kts 49°
2026-05-05 18:18 38.88216 -9.04665 5410 ft 267 kts 77°
2026-05-05 18:18 38.88100 -9.02251 6375 ft 279 kts 104°
2026-05-05 18:18 38.87250 -8.99976 7241 ft 287 kts 117°
2026-05-05 18:18 38.86032 -8.97921 8096 ft 296 kts 139°
2026-05-05 18:19 38.84223 -8.96643 8951 ft 301 kts 165°
2026-05-05 18:19 38.82137 -8.96441 9816 ft 304 kts 192°
2026-05-05 18:19 38.80133 -8.97265 10553 ft 308 kts 207°
2026-05-05 18:19 38.78151 -8.98534 10886 ft 329 kts 211°
2026-05-05 18:20 38.76051 -8.99921 11263 ft 348 kts 210°
2026-05-05 18:20 38.73847 -9.01263 12071 ft 352 kts 207°
2026-05-05 18:20 38.71593 -9.02539 12928 ft 355 kts 206°
2026-05-05 18:20 38.69306 -9.03782 13739 ft 360 kts 206°
2026-05-05 18:21 38.67005 -9.05012 14473 ft 363 kts 206°
2026-05-05 18:21 38.64667 -9.06256 15242 ft 365 kts 206°
2026-05-05 18:21 38.62313 -9.07510 15987 ft 367 kts 206°
2026-05-05 18:21 38.59948 -9.08770 16718 ft 370 kts 206°
2026-05-05 18:22 38.57596 -9.10024 17445 ft 373 kts 206°
2026-05-05 18:22 38.55194 -9.11304 18148 ft 376 kts 206°
2026-05-05 18:22 38.52773 -9.12593 18796 ft 378 kts 206°
2026-05-05 18:22 38.50412 -9.13850 19397 ft 381 kts 206°
2026-05-05 18:23 38.47955 -9.15157 20007 ft 384 kts 206°
2026-05-05 18:23 38.45443 -9.16360 20609 ft 390 kts 197°
2026-05-05 18:23 38.42724 -9.16742 21186 ft 399 kts 180°
2026-05-05 18:23 38.39966 -9.16116 21757 ft 408 kts 164°
2026-05-05 18:24 38.37394 -9.14527 22323 ft 416 kts 150°
2026-05-05 18:24 38.34996 -9.12421 22857 ft 421 kts 146°
2026-05-05 18:24 38.32627 -9.10210 23035 ft 423 kts 146°
2026-05-05 18:24 38.30246 -9.08006 23065 ft 423 kts 147°
2026-05-05 18:25 38.27849 -9.05838 23057 ft 422 kts 147°
2026-05-05 18:25 38.26222 -9.04392 23059 ft 422 kts 148°
2026-05-05 18:25 38.23023 -9.01580 23055 ft 422 kts 148°
2026-05-05 18:25 38.20600 -8.99464 23058 ft 422 kts 148°
2026-05-05 18:26 38.18178 -8.97353 23060 ft 422 kts 148°
2026-05-05 18:26 38.15756 -8.95243 23057 ft 422 kts 148°
2026-05-05 18:26 38.13330 -8.93131 23059 ft 422 kts 148°
2026-05-05 18:26 38.11006 -8.90842 23064 ft 425 kts 137°
2026-05-05 18:27 38.08916 -8.88177 23057 ft 426 kts 137°
2026-05-05 18:27 38.06828 -8.85505 23059 ft 426 kts 137°
2026-05-05 18:27 38.04738 -8.82827 23058 ft 427 kts 137°
2026-05-05 18:27 38.02651 -8.80152 23057 ft 426 kts 137°
2026-05-05 18:28 37.98480 -8.74810 23049 ft 426 kts 137°
2026-05-05 18:28 37.96392 -8.72140 23053 ft 426 kts 137°
2026-05-05 18:28 37.94302 -8.69471 23054 ft 426 kts 137°
2026-05-05 18:29 37.92215 -8.66807 23050 ft 426 kts 137°
2026-05-05 18:29 37.90131 -8.64151 23052 ft 426 kts 137°
2026-05-05 18:29 37.88038 -8.61485 23060 ft 426 kts 137°
2026-05-05 18:29 37.85949 -8.58825 23026 ft 427 kts 137°
2026-05-05 18:30 37.83854 -8.56160 22781 ft 426 kts 137°
2026-05-05 18:30 37.81769 -8.53511 22516 ft 424 kts 137°
2026-05-05 18:30 37.79698 -8.50881 22243 ft 421 kts 137°
2026-05-05 18:30 37.77637 -8.48267 21980 ft 419 kts 137°
2026-05-05 18:31 37.75581 -8.45661 21720 ft 417 kts 137°
2026-05-05 18:31 37.73535 -8.43070 21402 ft 417 kts 137°
2026-05-05 18:31 37.71484 -8.40475 20867 ft 417 kts 137°
2026-05-05 18:31 37.69441 -8.37894 20321 ft 414 kts 137°
2026-05-05 18:32 37.67415 -8.35333 19782 ft 411 kts 137°
2026-05-05 18:32 37.65397 -8.32786 19243 ft 408 kts 137°
2026-05-05 18:32 37.63398 -8.30266 18679 ft 406 kts 137°
2026-05-05 18:32 37.61408 -8.27761 18136 ft 402 kts 137°
2026-05-05 18:33 37.59440 -8.25285 17592 ft 397 kts 137°
2026-05-05 18:33 37.57494 -8.22837 17066 ft 393 kts 137°
2026-05-05 18:33 37.55569 -8.20417 16544 ft 389 kts 136°
2026-05-05 18:33 37.53662 -8.18020 16032 ft 386 kts 136°
2026-05-05 18:34 37.51767 -8.15641 15512 ft 383 kts 136°
2026-05-05 18:34 37.49887 -8.13282 15005 ft 380 kts 136°
2026-05-05 18:34 37.48017 -8.10940 14496 ft 378 kts 136°
2026-05-05 18:34 37.46160 -8.08614 13991 ft 376 kts 136°
2026-05-05 18:35 37.44310 -8.06298 13456 ft 374 kts 136°
2026-05-05 18:35 37.42474 -8.04001 12961 ft 370 kts 136°
2026-05-05 18:35 37.40661 -8.01731 12465 ft 367 kts 136°
2026-05-05 18:35 37.38858 -7.99479 11975 ft 363 kts 136°
2026-05-05 18:36 37.37072 -7.97248 11489 ft 360 kts 136°
2026-05-05 18:36 37.35298 -7.95035 11005 ft 358 kts 136°
2026-05-05 18:36 37.33541 -7.92845 10530 ft 355 kts 136°
2026-05-05 18:36 37.31814 -7.90695 10332 ft 343 kts 136°
2026-05-05 18:37 37.30153 -7.88626 10201 ft 329 kts 136°
2026-05-05 18:37 37.28559 -7.86640 10090 ft 316 kts 136°
2026-05-05 18:37 37.27019 -7.84725 9851 ft 309 kts 136°
2026-05-05 18:37 37.26014 -7.83477 9605 ft 306 kts 136°
2026-05-05 18:38 37.24028 -7.81010 9124 ft 301 kts 136°
2026-05-05 18:38 37.22549 -7.79173 8766 ft 297 kts 136°
2026-05-05 18:38 37.21559 -7.77947 8529 ft 295 kts 136°
2026-05-05 18:38 37.19547 -7.75455 8034 ft 290 kts 135°
2026-05-05 18:39 37.18131 -7.73683 7691 ft 286 kts 134°
2026-05-05 18:39 37.16715 -7.71935 7338 ft 284 kts 135°
2026-05-05 18:39 37.15316 -7.70209 6999 ft 281 kts 134°
2026-05-05 18:39 37.13924 -7.68499 6655 ft 279 kts 134°
2026-05-05 18:40 37.12542 -7.66798 6306 ft 278 kts 134°
2026-05-05 18:40 37.11170 -7.65105 5951 ft 275 kts 134°
2026-05-05 18:40 37.09792 -7.63448 5598 ft 274 kts 141°
2026-05-05 18:40 37.08094 -7.62437 5271 ft 272 kts 169°
2026-05-05 18:41 37.06234 -7.62517 4953 ft 268 kts 198°
2026-05-05 18:41 37.04520 -7.63404 4590 ft 266 kts 206°
2026-05-05 18:41 37.02849 -7.64382 4265 ft 264 kts 207°
2026-05-05 18:41 37.01186 -7.65350 4041 ft 268 kts 206°
2026-05-05 18:42 36.99488 -7.66339 3985 ft 264 kts 212°
2026-05-05 18:42 36.98264 -7.67865 3987 ft 240 kts 247°
2026-05-05 18:42 36.97854 -7.69791 3994 ft 229 kts 270°
2026-05-05 18:42 36.97923 -7.71795 3917 ft 230 kts 281°
2026-05-05 18:43 36.98187 -7.73758 3635 ft 228 kts 285°
2026-05-05 18:43 36.98473 -7.75708 3328 ft 228 kts 283°
2026-05-05 18:43 36.98753 -7.77655 3023 ft 227 kts 283°
2026-05-05 18:43 36.99025 -7.79604 2718 ft 227 kts 283°
2026-05-05 18:44 36.99300 -7.81536 2420 ft 224 kts 284°
2026-05-05 18:44 36.99572 -7.83443 2113 ft 221 kts 284°
2026-05-05 18:44 36.99829 -7.85260 1811 ft 201 kts 285°
2026-05-05 18:44 37.00061 -7.86875 1600 ft 175 kts 284°
2026-05-05 18:45 37.00257 -7.88277 1370 ft 151 kts 285°
2026-05-05 18:45 37.00427 -7.89477 1163 ft 130 kts 287°
2026-05-05 18:45 37.00578 -7.90508 1006 ft 126 kts 288°
2026-05-05 18:45 37.00733 -7.91580 827 ft 123 kts 284°
2026-05-05 18:46 37.00881 -7.92630 663 ft 119 kts 285°
2026-05-05 18:46 37.01021 -7.93647 519 ft 120 kts 283°
2026-05-05 18:46 37.01160 -7.94712 316 ft 126 kts 284°
2026-05-05 18:46 37.01321 -7.95754 97 ft 120 kts 282°
2026-05-05 18:47 37.01457 -7.96685 30 ft 97 kts 281°
2026-05-05 18:47 37.01535 -7.97224 29 ft 48 kts 281°
2026-05-05 18:47 37.01589 -7.97603 29 ft 42 kts 279°
2026-05-05 18:47 37.01632 -7.97835 30 ft 19 kts 312°
2026-05-05 18:48 37.01727 -7.97807 31 ft 12 kts 51°
2026-05-05 18:48 37.01751 -7.97744 31 ft 0 kts 70°
2026-05-05 18:48 37.01751 -7.97743 31 ft 1 kts 70°
2026-05-05 18:48 37.01760 -7.97713 31 ft 7 kts 72°
2026-05-05 18:49 37.01770 -7.97605 30 ft 18 kts 94°
2026-05-05 18:49 37.01745 -7.97413 30 ft 25 kts 100°
2026-05-05 18:49 37.01712 -7.97188 29 ft 28 kts 100°
2026-05-05 18:49 37.01686 -7.97006 29 ft 6 kts 100°
2026-05-05 18:50 37.01684 -7.96990 29 ft 0 kts 99°
2026-05-05 18:50 37.01684 -7.96989 29 ft 1 kts 99°
2026-05-05 18:51 37.01681 -7.96960 29 ft 7 kts 92°
2026-05-05 18:51 37.01732 -7.96904 29 ft 14 kts 14°
2026-05-05 18:51 37.01809 -7.96883 29 ft 5 kts 24°
2026-05-05 18:51 37.01829 -7.96835 29 ft 8 kts 88°
2026-05-05 18:52 37.01842 -7.96791 29 ft 9 kts 36°
2026-05-05 18:52 37.01899 -7.96774 29 ft 7 kts 10°
2026-05-05 18:52 37.01904 -7.96773 29 ft 0 kts 10°